THORAD AGENA D DEB, 21721

Orbit data source: Space-Track

THORAD AGENA D DEB, 21721 is space debris in SSO originally from a launch on Wed, 08 Apr 1970 UTC launched from the Air Force Western Test Range (AFWTR). Debris objects in space refer to the collection of defunct objects orbiting the Earth. Examples of debris include non-operational satellites, rocket bodies, and fragments generated from explosions, collisions, or faulty payload assembly.

Loading next visibility...
Identifier
21721, 1970-025QG
Orbit
SSO
Country
Flag of USUS
Related business
Manufacturer
Unknown
Mission
Spacecraft
Bus & Motor
Unknown
Mass
Unknown
Launch date (UTC)
1970-04-08 (56 years ago)
Launch vehicle
Unknown
Launch site
Air Force Western Test Range (AFWTR)
Object type
Payload
Rocket body
Debris
Shape & HBR
Unknown shape, 0.1 m
Radar Cross Section
Medium (>0.1 m² and <1 m²)

Expand to show TLE details & history
Last TLE update: 1 day ago

TLE from 1 day ago
0 THORAD AGENA D DEB
1 21721U 70025QG  26236.35052406  .00000694  00000-0  82736-3 0  9999
2 21721 100.1131 191.4265 0005999  81.4820  71.8924 13.71360837733547
Epoch: 2026-08-24T08:24Z
TLE epoch observation values (Epoch: 2026-08-24T08:24:45.278Z)
Latitude
26.15094°
Longitude
-82.3976°
Altitude
996.391 km
Speed
7.356 km/s
True Right ascension
01h 05m 41s
True Declination
26° 01' 10"
Sunlit
Object was in full shadow at epoch
Visualization orbit readout
Latitude
Unknown
Longitude
Unknown
Altitude
Unknown
Speed
Unknown
Apparent Right ascension
Unknown
Apparent Declination
Unknown
Sunlit
N/A
Visualization observer readout
Local Sidereal Time
06:04:32
Azimuth
Unknown
Elevation
Unknown
Doppler factor
Unknown
Orbital elements
Apogee altitude
996.406 km
Perigee altitude
987.563 km
Semi-major axis
7,370.121 km
Eccentricity
0.0006
Inclination
100.1131°
RAAN
191.4265°
Arg. of periapsis
81.482°
True anomaly
71.95775°
Mean anomaly
71.8924°
Eccentric anomaly
71.92508°
Mean motion
3.43029 °/min
Orbital period
104.95 mins
BSTAR
0.00082736

Documentation

Showing up to 5 results
|